Status Flugplatz

Der Flugplatz ist offen
PPR Regelung ! PJE !!!

123.15 MHz
RWY 05/23

flüger beizli - Öffnungszeiten
Freitag ab 16:00
Samstag +Sonntag ab 11:00
Bei schönem Wetter öffnen wir früher! Tel.: 079 234 07 74

Herzlich willkommen auf der Homepage des Flugplatz Biel-Kappelen

Wir freuen uns über Ihren Besuch auf unserem schönen Flugplatz im Berner Seeland. Ob zu Fuss, per Velo, Motorrad, Auto oder Flugzeug Sie sind uns jederzeit herzlich willkommen. 


 

Wetter Kappelen

 


 

[source: ADDS]
METAR
LSZG 280950Z 22005KT 9999 FEW035 13/08 Q1025 NOSIG =
TAF
TAF LSZG 280825Z 2809/2818 VRB03KT 8000 NSC BECMG 2809/2810 CAVOK TEMPO 2809/2818 FEW050 =
SR / SS: 05:17 / 17:56 UTC ( 2017-03-28)

 


 

Besucherzähler

HeuteHeute39
Seit BeginnSeit Beginn84267
Guests 1

Flugplatz Biel-Kappelen LSZP - 123.15MHz - 032 384 46 84

Email: Diese E-Mail-Adresse ist vor Spambots geschützt! Zur Anzeige muss JavaScript eingeschaltet sein!
www.lszp.ch
2017 © by mb

Zum Anfang